Regional Weather Roundup
Issued by NWS

Home | Current Version | Previous Version | Text Only | Print | Product List | Glossary On
Versions: 1 2 3 4 5 6 7 8 9 10 11 12 13 14 15 16 17 18 19 20 21 22 23 24 25 26 27 28 29 30 31 32 33 34 35 36 37 38 39 40 41 42 43 44 45 46 47 48 49 50
000
ASUS43 KLSX 071307
RWRMO

WEATHER SUMMARY FOR MISSOURI
NATIONAL WEATHER SERVICE SPRINGFIELD MO
700 AM CST WED DEC 07 2016

NOTE: "FAIR" INDICATES FEW OR NO CLOUDS BELOW 12,000 FEET WITH NO
       SIGNIFICANT WEATHER AND/OR OBSTRUCTIONS TO VISIBILITY.
       CURRENT SKY AND/OR WEATHER CONDITIONS ARE NOT AVAILABLE FOR
       CHILLICOTHE AND FARMINGTON.

MOZ001>031-035>038-043-044-053-054-071400-
...NORTHERN AND WESTERN MISSOURI...

CITY           SKY/WX    TMP DP  RH WIND       PRES   REMARKS
KANSAS CTY INT CLOUDY    27  13  55 N10       30.18R WCI  17
KANSAS C DTWN  CLOUDY    31  12  45 N6        30.20R WCI  25
LEE`S SUMMIT   CLOUDY    30  12  47 NE8       30.19R WCI  22
ST JOSEPH      CLOUDY    25  15  66 N12       30.22R WCI  14
CHILLICOTHE      N/A     25  14  63 NW3       30.22R
KIRKSVILLE     PTCLDY    25  14  63 NW9       30.19R WCI  15

$$
MOZ066>068-077>081-088>096-101>105-071400-
...SOUTHWEST MISSOURI...

CITY           SKY/WX    TMP DP  RH WIND       PRES   REMARKS
SPRINGFIELD    CLOUDY    29  18  63 SE8       30.16F WCI  21
JOPLIN         CLOUDY    31  18  58 E9        30.18S WCI  23
BRANSON        CLOUDY    30  18  59 E5        30.20R WCI  25

$$
MOZ032>034-039>042-045>050-055>058-069>072-071400-
...CENTRAL MISSOURI...

CITY           SKY/WX    TMP DP  RH WIND       PRES   REMARKS
COLUMBIA       CLOUDY    30  15  53 NW3       30.18R
JEFFERSON CITY CLOUDY    29  22  75 MISG      30.21R
ROLLA          CLOUDY    25  20  81 CALM      30.17R
SEDALIA        CLOUDY    31  17  56 N3        30.20R
WHITEMAN AFB   MOCLDY    30  15  54 CALM      30.18R
WARRENSBURG    CLOUDY    30  16  55 CALM      30.21R
OSAGE BEACH    CLOUDY    28  24  85 CALM      30.20S

$$
MOZ051-052-059>065-071400-
...EAST CENTRAL MISSOURI...

CITY           SKY/WX    TMP DP  RH WIND       PRES   REMARKS
ST LOUIS INTL  MOCLDY    32  18  56 SW3       30.19R
SPIRIT OF STL  CLOUDY    29  21  72 W3        30.20R
ST CHARLES     CLOUDY    28  23  81 SW5       30.19S WCI  23

$$
MOZ072>076-082>087-097>100-106>115-071400-
...SOUTH CENTRAL AND SOUTHEAST MISSOURI...

CITY           SKY/WX    TMP DP  RH WIND       PRES   REMARKS
CAPE GIRARDEAU MOCLDY    30  24  78 N6        30.22R WCI  24
FARMINGTON     CLEAR     25  19  78 CALM      30.21R
POPLAR BLUFF   CLOUDY    33  27  78 N5        30.23R WCI  29
WEST PLAINS    CLOUDY    26  19  74 NE3       30.20R

$$


USA.gov is the U.S. government's official web portal to all federal, state and local government web resources and services.